QPF
0.00 0.00 0.00 0.01 0.00 0.00 0.00 0.00 0.00 0.00 0.00 0.00 0.01 0.01 0.01 0.01 0.01 0.00 0.01 0.01 0.01 0.00 0.00 0.00 0.00 0.00 0.00 0.00 0.01 0.01 0.01 0.01 0.01 0.01 0.01 0.01 0.01 0.01 0.01 0.00 0.00 0.00 0.00
0.00 0.00 0.00 0.01 0.00 0.00 0.00 0.00 0.00 0.00 0.00 0.00 0.01 0.00 0.00 0.01 0.01 0.01 0.01 0.01 0.01 0.00 0.00 0.00 0.00 0.00 0.00 0.00 0.00 0.00 0.01 0.00 0.00 0.00 0.00 0.00 0.01 0.01 0.01 0.01 0.01 0.01 0.01
0.00 0.00 0.00 0.00 0.00 0.00 0.00 0.00 0.00 0.00 0.00 0.00 0.00 0.00 0.00 0.00 0.00 0.00 0.00 0.00 0.00 0.00 0.00 0.00 0.00 0.00 0.00 0.00 0.00 0.00 0.00 0.00 0.00 0.00 0.00 0.00 0.01 0.01 0.01 0.01 0.01 0.01 0.01
0.00 0.00 0.00 0.00 0.00 0.00 0.00 0.00 0.00 0.00 0.00 0.00 0.00 0.00 0.00 0.00 0.00 0.00 0.00 0.00 0.00 0.00 0.00 0.00 0.00 0.00 0.00 0.00 0.00 0.00 0.00 0.00 0.00 0.00 0.00 0.00 0.00 0.01 0.01 0.01 0.01 0.01 0.01
0.00 0.00 0.00 0.00 0.00 0.00 0.01 0.01 0.00 0.00 0.00 0.00 0.00 0.00 0.00 0.00 0.00 0.00 0.00 0.00 0.00 0.00 0.00 0.00 0.00 0.00 0.00 0.00 0.00 0.00 0.00 0.00 0.00 0.00 0.00 0.00 0.00 0.01 0.01 0.01 0.01 0.01 0.01
0.00 0.00 0.00 0.00 0.00 0.01 0.01 0.01 0.01 0.00 0.00 0.00 0.00 0.00 0.00 0.00 0.00 0.00 0.00 0.00 0.00 0.00 0.00 0.00 0.00 0.00 0.00 0.00 0.00 0.00 0.00 0.00 0.00 0.00 0.00 0.00 0.00 0.01 0.01 0.00 0.00 0.01 0.01
0.00 0.00 0.00 0.00 0.00 0.01 0.01 0.01 0.01 0.01 0.01 0.00 0.00 0.00 0.00 0.00 0.00 0.00 0.00 0.00 0.00 0.00 0.00 0.00 0.00 0.00 0.00 0.00 0.00 0.00 0.00 0.00 0.00 0.00 0.00 0.00 0.00 0.00 0.00 0.00 0.00 0.00 0.00
0.00 0.00 0.00 0.00 0.01 0.01 0.01 0.01 0.01 0.01 0.01 0.00 0.00 0.01 0.01 0.01 0.00 0.00 0.00 0.00 0.00 0.00 0.00 0.00 0.00 0.00 0.00 0.00 0.00 0.00 0.00 0.00 0.00 0.00 0.00 0.00 0.00 0.00 0.00 0.00 0.00 0.00 0.00
0.00 0.00 0.00 0.00 0.00 0.01 0.01 0.01 0.01 0.01 0.01 0.01 0.01 0.01 0.00 0.00 0.00 0.00 0.00 0.00 0.00 0.00 0.00 0.00 0.00 0.00 0.00 0.00 0.00 0.00 0.00 0.00 0.00 0.00 0.00 0.00 0.00 0.00 0.00 0.00 0.00 0.00 0.00
0.00 0.00 0.00 0.00 0.00 0.00 0.01 0.01 0.01 0.01 0.01 0.01 0.01 0.01 0.00 0.00 0.00 0.00 0.00 0.00 0.00 0.00 0.00 0.00 0.00 0.00 0.00 0.00 0.00 0.00 0.00 0.00 0.00 0.00 0.00 0.00 0.00 0.00 0.00 0.00 0.00 0.00 0.00
0.00 0.00 0.00 0.00 0.00 0.00 0.00 0.01 0.01 0.01 0.01 0.01 0.01 0.01 0.00 0.00 0.00 0.00 0.00 0.00 0.00 0.00 0.00 0.00 0.00 0.00 0.00 0.00 0.00 0.00 0.00 0.00 0.00 0.00 0.00 0.00 0.00 0.00 0.00 0.00 0.00 0.00 0.00
0.00 0.00 0.00 0.00 0.00 0.00 0.00 0.00 0.01 0.01 0.01 0.00 0.00 0.00 0.00 0.00 0.00 0.00 0.00 0.00 0.00 0.00 0.00 0.00 0.00 0.00 0.00 0.00 0.00 0.00 0.00 0.00 0.00 0.00 0.00 0.00 0.00 0.00 0.00 0.00 0.00 0.00 0.00
0.00 0.00 0.00 0.00 0.00 0.00 0.00 0.00 0.00 0.00 0.00 0.00 0.00 0.00 0.00 0.00 0.00 0.00 0.00 0.00 0.00 0.00 0.00 0.00 0.00 0.00 0.00 0.00 0.00 0.00 0.00 0.00 0.00 0.00 0.00 0.00 0.00 0.00 0.00 0.00 0.00 0.00 0.00
0.00 0.00 0.00 0.00 0.00 0.00 0.00 0.00 0.00 0.00 0.00 0.00 0.00 0.00 0.00 0.00 0.00 0.00 0.00 0.00 0.00 0.00 0.00 0.00 0.00 0.00 0.00 0.00 0.00 0.00 0.00 0.00 0.00 0.00 0.00 0.00 0.00 0.00 0.00 0.00 0.00 0.00 0.00
0.00 0.00 0.00 0.00 0.00 0.00 0.00 0.00 0.00 0.00 0.00 0.00 0.00 0.00 0.00 0.00 0.00 0.00 0.00 0.00 0.00 0.00 0.00 0.00 0.00 0.00 0.00 0.00 0.00 0.00 0.00 0.00 0.00 0.00 0.00 0.00 0.00 0.00 0.00 0.00 0.00 0.00 0.00
0.00 0.00 0.00 0.00 0.00 0.00 0.00 0.00 0.00 0.00 0.00 0.00 0.00 0.00 0.00 0.00 0.00 0.00 0.00 0.00 0.00 0.00 0.00 0.00 0.00 0.00 0.00 0.00 0.00 0.00 0.00 0.00 0.00 0.00 0.00 0.00 0.00 0.00 0.00 0.00 0.00 0.00 0.00
0.00 0.00 0.00 0.00 0.00 0.00 0.00 0.00 0.00 0.00 0.00 0.00 0.00 0.00 0.00 0.00 0.00 0.00 0.00 0.00 0.00 0.00 0.00 0.00 0.00 0.00 0.00 0.00 0.00 0.00 0.00 0.00 0.00 0.00 0.00 0.00 0.00 0.00 0.00 0.00 0.00 0.00 0.00
0.00 0.00 0.00 0.00 0.00 0.00 0.00 0.00 0.00 0.00 0.00 0.00 0.00 0.00 0.00 0.00 0.00 0.00 0.00 0.00 0.00 0.00 0.00 0.00 0.00 0.00 0.00 0.00 0.00 0.00 0.00 0.00 0.00 0.00 0.00 0.00 0.00 0.00 0.00 0.00 0.00 0.00 0.00
0.00 0.00 0.00 0.00 0.00 0.00 0.00 0.00 0.00 0.00 0.00 0.00 0.00 0.00 0.00 0.00 0.00 0.00 0.00 0.00 0.00 0.00 0.00 0.00 0.00 0.00 0.00 0.00 0.00 0.00 0.00 0.00 0.00 0.00 0.00 0.00 0.00 0.00 0.00 0.00 0.00 0.00 0.00
0.00 0.00 0.00 0.00 0.00 0.00 0.00 0.00 0.00 0.00 0.00 0.00 0.00 0.00 0.00 0.00 0.00 0.00 0.00 0.00 0.00 0.00 0.00 0.00 0.00 0.00 0.00 0.00 0.00 0.00 0.00 0.00 0.00 0.00 0.00 0.00 0.00 0.00 0.00 0.00 0.00 0.00 0.00
0.00 0.00 0.00 0.00 0.00 0.00 0.00 0.00 0.00 0.00 0.00 0.00 0.00 0.00 0.00 0.00 0.00 0.00 0.00 0.00 0.00 0.00 0.00 0.00 0.00 0.00 0.00 0.00 0.00 0.00 0.00 0.00 0.00 0.00 0.00 0.00 0.00 0.00 0.00 0.00 0.00 0.00 0.00
0.00 0.00 0.00 0.00 0.00 0.00 0.00 0.00 0.00 0.00 0.00 0.00 0.00 0.00 0.00 0.00 0.00 0.00 0.00 0.00 0.00 0.00 0.00 0.00 0.00 0.00 0.00 0.00 0.00 0.00 0.00 0.00 0.00 0.00 0.00 0.00 0.00 0.00 0.00 0.00 0.00 0.00 0.00
0.00 0.00 0.00 0.00 0.00 0.00 0.00 0.00 0.00 0.00 0.00 0.00 0.00 0.00 0.00 0.00 0.00 0.00 0.00 0.00 0.00 0.00 0.00 0.00 0.00 0.00 0.00 0.00 0.00 0.00 0.00 0.00 0.00 0.00 0.00 0.00 0.00 0.00 0.00 0.00 0.00 0.00 0.00
0.00 0.00 0.00 0.00 0.00 0.00 0.00 0.00 0.00 0.00 0.00 0.00 0.00 0.00 0.00 0.00 0.00 0.00 0.00 0.00 0.00 0.00 0.00 0.00 0.00 0.00 0.00 0.00 0.00 0.00 0.00 0.00 0.00 0.00 0.00 0.00 0.00 0.00 0.00 0.00 0.00 0.00 0.00
0.00 0.00 0.00 0.00 0.00 0.00 0.00 0.00 0.00 0.00 0.00 0.00 0.00 0.00 0.00 0.00 0.00 0.00 0.00 0.00 0.00 0.00 0.00 0.00 0.00 0.00 0.00 0.00 0.00 0.00 0.00 0.00 0.00 0.00 0.00 0.00 0.00 0.00 0.00 0.00 0.00 0.00 0.00
0.00 0.00 0.00 0.00 0.00 0.00 0.00 0.00 0.00 0.00 0.00 0.00 0.00 0.00 0.00 0.00 0.00 0.00 0.00 0.00 0.00 0.00 0.00 0.00 0.00 0.00 0.00 0.00 0.00 0.00 0.00 0.00 0.00 0.00 0.00 0.00 0.00 0.00 0.00 0.00 0.00 0.00 0.00
MSLP
1017.63 1017.85 1018.20 1018.64 1019.14 1019.62 1020.04 1020.36 1020.58 1020.71 1020.78 1020.84 1020.93 1021.08 1021.29 1021.54 1021.81 1022.05 1022.23 1022.34 1022.35 1022.30 1022.20 1022.08 1021.97 1021.88 1021.82 1021.78 1021.74 1021.69 1021.62 1021.51 1021.37 1021.20 1021.03 1020.87 1020.74 1020.63 1020.54 1020.48 1020.43 1020.38 1020.31
1017.27 1017.50 1017.87 1018.37 1018.92 1019.48 1019.99 1020.39 1020.69 1020.87 1020.99 1021.07 1021.18 1021.34 1021.56 1021.84 1022.13 1022.40 1022.62 1022.76 1022.81 1022.79 1022.73 1022.64 1022.55 1022.48 1022.42 1022.38 1022.33 1022.26 1022.16 1022.02 1021.85 1021.67 1021.48 1021.32 1021.18 1021.08 1021.01 1020.95 1020.91 1020.87 1020.81
1016.92 1017.17 1017.56 1018.09 1018.71 1019.33 1019.92 1020.41 1020.78 1021.04 1021.20 1021.33 1021.47 1021.64 1021.87 1022.15 1022.44 1022.72 1022.95 1023.11 1023.20 1023.21 1023.18 1023.12 1023.07 1023.02 1022.99 1022.95 1022.89 1022.80 1022.67 1022.51 1022.32 1022.12 1021.93 1021.77 1021.64 1021.55 1021.48 1021.44 1021.40 1021.36 1021.30
1016.65 1016.92 1017.34 1017.89 1018.54 1019.22 1019.86 1020.42 1020.86 1021.18 1021.40 1021.57 1021.74 1021.93 1022.16 1022.43 1022.71 1022.98 1023.21 1023.37 1023.47 1023.51 1023.51 1023.50 1023.49 1023.48 1023.48 1023.45 1023.40 1023.30 1023.16 1022.98 1022.78 1022.57 1022.38 1022.23 1022.11 1022.03 1021.97 1021.94 1021.90 1021.85 1021.79
1016.52 1016.81 1017.24 1017.81 1018.47 1019.17 1019.84 1020.43 1020.91 1021.27 1021.54 1021.75 1021.94 1022.15 1022.38 1022.63 1022.90 1023.15 1023.36 1023.51 1023.62 1023.69 1023.73 1023.77 1023.81 1023.85 1023.88 1023.89 1023.85 1023.76 1023.61 1023.43 1023.22 1023.01 1022.83 1022.68 1022.58 1022.51 1022.47 1022.43 1022.39 1022.34 1022.28
1016.54 1016.85 1017.29 1017.85 1018.50 1019.18 1019.83 1020.42 1020.91 1021.29 1021.59 1021.83 1022.04 1022.26 1022.50 1022.75 1023.00 1023.23 1023.42 1023.57 1023.68 1023.77 1023.85 1023.93 1024.03 1024.13 1024.21 1024.25 1024.24 1024.16 1024.03 1023.84 1023.64 1023.44 1023.27 1023.13 1023.04 1022.98 1022.94 1022.90 1022.86 1022.80 1022.74
1016.70 1017.02 1017.45 1017.99 1018.59 1019.23 1019.83 1020.38 1020.85 1021.22 1021.53 1021.79 1022.03 1022.27 1022.52 1022.78 1023.03 1023.24 1023.43 1023.57 1023.69 1023.80 1023.91 1024.04 1024.19 1024.34 1024.46 1024.54 1024.56 1024.51 1024.39 1024.22 1024.03 1023.84 1023.67 1023.55 1023.46 1023.40 1023.36 1023.32 1023.27 1023.22 1023.15
1016.93 1017.26 1017.67 1018.16 1018.71 1019.27 1019.81 1020.30 1020.72 1021.07 1021.37 1021.65 1021.92 1022.20 1022.48 1022.75 1023.01 1023.23 1023.42 1023.56 1023.69 1023.82 1023.96 1024.12 1024.31 1024.49 1024.66 1024.77 1024.81 1024.78 1024.68 1024.52 1024.35 1024.18 1024.03 1023.91 1023.83 1023.77 1023.72 1023.67 1023.62 1023.55 1023.48
1017.14 1017.47 1017.86 1018.31 1018.80 1019.29 1019.75 1020.17 1020.54 1020.87 1021.16 1021.46 1021.76 1022.08 1022.40 1022.71 1023.00 1023.24 1023.43 1023.58 1023.72 1023.85 1024.01 1024.19 1024.39 1024.60 1024.78 1024.91 1024.97 1024.96 1024.88 1024.75 1024.59 1024.44 1024.31 1024.20 1024.12 1024.05 1023.99 1023.93 1023.86 1023.79 1023.72
1017.27 1017.59 1017.97 1018.39 1018.83 1019.26 1019.67 1020.03 1020.35 1020.65 1020.95 1021.27 1021.60 1021.97 1022.34 1022.69 1023.00 1023.26 1023.47 1023.63 1023.76 1023.89 1024.04 1024.23 1024.43 1024.63 1024.82 1024.96 1025.03 1025.03 1024.97 1024.86 1024.74 1024.61 1024.49 1024.40 1024.32 1024.25 1024.17 1024.09 1024.00 1023.91 1023.83
1017.27 1017.59 1017.97 1018.38 1018.80 1019.20 1019.56 1019.89 1020.19 1020.48 1020.79 1021.12 1021.50 1021.90 1022.30 1022.69 1023.03 1023.31 1023.51 1023.67 1023.79 1023.91 1024.04 1024.20 1024.39 1024.58 1024.75 1024.89 1024.96 1024.98 1024.94 1024.86 1024.76 1024.67 1024.58 1024.50 1024.43 1024.34 1024.25 1024.14 1024.02 1023.91 1023.82
1017.15 1017.49 1017.88 1018.30 1018.72 1019.12 1019.47 1019.79 1020.08 1020.38 1020.69 1021.05 1021.45 1021.87 1022.30 1022.71 1023.05 1023.33 1023.52 1023.66 1023.76 1023.86 1023.96 1024.09 1024.25 1024.41 1024.56 1024.68 1024.76 1024.78 1024.77 1024.72 1024.66 1024.60 1024.55 1024.49 1024.42 1024.34 1024.22 1024.08 1023.94 1023.79 1023.68
1016.97 1017.33 1017.75 1018.19 1018.63 1019.05 1019.41 1019.74 1020.05 1020.35 1020.68 1021.04 1021.45 1021.88 1022.30 1022.70 1023.03 1023.28 1023.46 1023.57 1023.64 1023.70 1023.77 1023.87 1023.99 1024.12 1024.24 1024.35 1024.42 1024.45 1024.45 1024.44 1024.42 1024.40 1024.38 1024.35 1024.29 1024.21 1024.08 1023.92 1023.74 1023.56 1023.42
1016.81 1017.18 1017.63 1018.10 1018.57 1019.01 1019.40 1019.75 1020.07 1020.38 1020.71 1021.07 1021.46 1021.87 1022.27 1022.62 1022.92 1023.13 1023.27 1023.35 1023.39 1023.42 1023.46 1023.52 1023.61 1023.71 1023.81 1023.89 1023.95 1023.98 1024.00 1024.01 1024.02 1024.03 1024.05 1024.05 1024.02 1023.94 1023.81 1023.63 1023.42 1023.21 1023.03
1016.74 1017.13 1017.59 1018.08 1018.57 1019.03 1019.44 1019.80 1020.12 1020.43 1020.75 1021.09 1021.44 1021.80 1022.15 1022.45 1022.69 1022.87 1022.96 1023.00 1023.02 1023.02 1023.04 1023.08 1023.14 1023.21 1023.28 1023.34 1023.38 1023.40 1023.41 1023.43 1023.45 1023.49 1023.53 1023.56 1023.55 1023.50 1023.37 1023.19 1022.98 1022.75 1022.54
1016.84 1017.22 1017.67 1018.16 1018.64 1019.09 1019.50 1019.86 1020.17 1020.47 1020.75 1021.05 1021.35 1021.65 1021.93 1022.17 1022.35 1022.47 1022.53 1022.55 1022.55 1022.54 1022.55 1022.57 1022.61 1022.66 1022.70 1022.72 1022.72 1022.71 1022.70 1022.69 1022.71 1022.76 1022.81 1022.86 1022.88 1022.85 1022.76 1022.60 1022.39 1022.15 1021.93
1017.11 1017.46 1017.88 1018.33 1018.78 1019.20 1019.57 1019.90 1020.19 1020.45 1020.69 1020.93 1021.17 1021.41 1021.61 1021.79 1021.92 1021.99 1022.03 1022.03 1022.03 1022.02 1022.03 1022.04 1022.07 1022.09 1022.09 1022.06 1022.01 1021.94 1021.88 1021.83 1021.81 1021.83 1021.88 1021.94 1021.99 1021.99 1021.94 1021.82 1021.65 1021.44 1021.22
1017.56 1017.86 1018.21 1018.59 1018.97 1019.33 1019.65 1019.93 1020.16 1020.37 1020.56 1020.75 1020.92 1021.08 1021.23 1021.34 1021.42 1021.47 1021.48 1021.48 1021.48 1021.48 1021.49 1021.51 1021.52 1021.51 1021.46 1021.38 1021.26 1021.12 1020.98 1020.86 1020.78 1020.75 1020.78 1020.83 1020.89 1020.93 1020.93 1020.87 1020.76 1020.59 1020.41
1018.14 1018.36 1018.63 1018.92 1019.21 1019.48 1019.73 1019.94 1020.11 1020.26 1020.39 1020.51 1020.62 1020.72 1020.80 1020.87 1020.90 1020.92 1020.93 1020.93 1020.93 1020.94 1020.96 1020.97 1020.96 1020.92 1020.83 1020.68 1020.49 1020.26 1020.03 1019.82 1019.66 1019.57 1019.54 1019.57 1019.63 1019.71 1019.76 1019.77 1019.72 1019.63 1019.50
1018.78 1018.93 1019.11 1019.30 1019.49 1019.67 1019.82 1019.95 1020.06 1020.15 1020.21 1020.27 1020.31 1020.35 1020.38 1020.39 1020.39 1020.39 1020.38 1020.37 1020.37 1020.39 1020.39 1020.39 1020.37 1020.29 1020.15 1019.95 1019.69 1019.39 1019.07 1018.77 1018.52 1018.35 1018.25 1018.24 1018.29 1018.37 1018.47 1018.54 1018.57 1018.55 1018.49
1019.45 1019.52 1019.61 1019.71 1019.80 1019.89 1019.96 1020.01 1020.05 1020.06 1020.06 1020.05 1020.03 1020.01 1019.97 1019.94 1019.90 1019.86 1019.83 1019.80 1019.79 1019.78 1019.78 1019.76 1019.71 1019.60 1019.43 1019.19 1018.88 1018.52 1018.13 1017.76 1017.42 1017.16 1017.00 1016.93 1016.94 1017.01 1017.12 1017.23 1017.32 1017.37 1017.38
1020.11 1020.12 1020.13 1020.14 1020.15 1020.16 1020.16 1020.14 1020.10 1020.04 1019.97 1019.89 1019.80 1019.70 1019.60 1019.51 1019.42 1019.33 1019.26 1019.20 1019.15 1019.11 1019.07 1019.02 1018.95 1018.82 1018.63 1018.37 1018.04 1017.66 1017.24 1016.82 1016.42 1016.09 1015.85 1015.71 1015.66 1015.69 1015.78 1015.90 1016.03 1016.13 1016.20
1020.74 1020.70 1020.65 1020.60 1020.55 1020.49 1020.42 1020.33 1020.23 1020.09 1019.95 1019.78 1019.61 1019.43 1019.26 1019.10 1018.94 1018.79 1018.66 1018.54 1018.43 1018.35 1018.26 1018.17 1018.07 1017.93 1017.75 1017.50 1017.19 1016.82 1016.40 1015.97 1015.55 1015.17 1014.86 1014.63 1014.51 1014.47 1014.51 1014.60 1014.73 1014.85 1014.96
1021.33 1021.25 1021.16 1021.07 1020.98 1020.87 1020.74 1020.59 1020.41 1020.20 1019.97 1019.71 1019.45 1019.19 1018.94 1018.69 1018.46 1018.24 1018.03 1017.84 1017.67 1017.51 1017.36 1017.23 1017.09 1016.95 1016.78 1016.56 1016.30 1015.98 1015.62 1015.22 1014.80 1014.40 1014.03 1013.74 1013.52 1013.39 1013.34 1013.37 1013.45 1013.56 1013.68
1021.85 1021.75 1021.64 1021.53 1021.40 1021.25 1021.08 1020.87 1020.62 1020.33 1020.01 1019.67 1019.31 1018.96 1018.62 1018.29 1017.98 1017.68 1017.40 1017.13 1016.87 1016.63 1016.42 1016.23 1016.05 1015.90 1015.74 1015.58 1015.38 1015.14 1014.85 1014.51 1014.14 1013.74 1013.35 1012.98 1012.67 1012.44 1012.29 1012.22 1012.23 1012.30 1012.40
1022.31 1022.19 1022.07 1021.93 1021.78 1021.61 1021.39 1021.13 1020.82 1020.45 1020.04 1019.61 1019.17 1018.73 1018.31 1017.91 1017.53 1017.16 1016.80 1016.45 1016.11 1015.78 1015.49 1015.22 1015.00 1014.82 1014.67 1014.55 1014.42 1014.26 1014.06 1013.81 1013.49 1013.12 1012.72 1012.32 1011.93 1011.60 1011.34 1011.17 1011.09 1011.09 1011.16
Thickness
5724 5720 5713 5710 5707 5703 5700 5698 5696 5694 5693 5691 5690 5689 5688 5687 5686 5685 5685 5684 5684 5684 5684 5684 5684 5684 5685 5685 5686 5686 5687 5687 5688 5689 5691 5692 5693 5694 5695 5696 5698 5699 5700
5728 5721 5713 5709 5705 5702 5699 5696 5694 5692 5690 5688 5687 5686 5684 5683 5682 5681 5680 5680 5679 5679 5678 5678 5678 5678 5678 5678 5679 5679 5680 5680 5681 5682 5684 5686 5687 5688 5689 5689 5691 5692 5693
5725 5719 5713 5708 5704 5700 5697 5694 5691 5689 5687 5685 5683 5682 5680 5679 5678 5677 5676 5675 5674 5673 5673 5672 5672 5672 5672 5672 5672 5673 5673 5673 5674 5675 5678 5680 5680 5681 5682 5683 5684 5685 5686
5723 5718 5713 5707 5703 5698 5695 5692 5689 5687 5684 5682 5680 5678 5676 5675 5673 5672 5671 5669 5668 5667 5667 5666 5666 5666 5666 5666 5666 5666 5666 5666 5667 5670 5672 5673 5674 5674 5675 5676 5677 5678 5679
5720 5716 5712 5706 5701 5697 5693 5690 5687 5684 5681 5679 5676 5674 5672 5671 5669 5667 5666 5664 5663 5662 5661 5660 5660 5660 5660 5660 5659 5659 5659 5659 5661 5663 5665 5665 5667 5667 5667 5668 5669 5670 5671
5719 5714 5710 5703 5699 5695 5691 5687 5684 5681 5678 5676 5673 5671 5669 5667 5665 5663 5661 5659 5657 5656 5655 5655 5654 5654 5654 5653 5653 5653 5653 5653 5656 5657 5658 5659 5660 5660 5661 5661 5662 5662 5663
5717 5712 5708 5701 5697 5692 5689 5685 5681 5678 5675 5673 5670 5667 5665 5663 5661 5658 5656 5654 5652 5651 5650 5649 5649 5648 5648 5648 5647 5647 5647 5647 5649 5650 5651 5651 5652 5653 5654 5654 5655 5655 5656
5714 5709 5705 5698 5694 5690 5686 5682 5679 5675 5672 5669 5667 5664 5662 5659 5657 5654 5652 5650 5648 5646 5645 5644 5643 5643 5643 5642 5642 5641 5641 5641 5642 5643 5644 5645 5645 5647 5647 5648 5648 5649 5649
5710 5705 5702 5697 5691 5687 5683 5679 5676 5672 5669 5666 5663 5661 5658 5656 5653 5651 5648 5646 5644 5642 5641 5640 5639 5638 5637 5637 5637 5636 5635 5635 5637 5638 5638 5638 5638 5640 5641 5641 5641 5641 5642
5705 5702 5699 5695 5690 5685 5681 5676 5672 5669 5665 5663 5660 5657 5654 5651 5649 5647 5644 5642 5640 5638 5637 5635 5634 5633 5633 5632 5632 5631 5630 5630 5633 5632 5633 5633 5632 5634 5635 5635 5635 5635 5635
5701 5699 5696 5693 5688 5683 5679 5674 5669 5665 5662 5659 5656 5653 5650 5648 5646 5643 5641 5638 5636 5634 5633 5631 5630 5629 5628 5627 5627 5626 5625 5627 5628 5628 5628 5627 5627 5628 5629 5629 5630 5630 5630
5700 5697 5694 5690 5685 5680 5675 5671 5666 5662 5659 5656 5653 5650 5647 5644 5642 5639 5636 5633 5631 5630 5628 5627 5626 5624 5624 5624 5623 5621 5622 5622 5623 5623 5623 5621 5621 5622 5624 5625 5625 5625 5625
5700 5694 5690 5686 5681 5677 5672 5668 5664 5660 5656 5653 5650 5646 5643 5639 5636 5633 5631 5629 5627 5625 5624 5623 5621 5621 5620 5619 5618 5618 5618 5618 5618 5618 5618 5617 5616 5617 5618 5620 5620 5620 5620
5696 5692 5687 5682 5678 5673 5669 5664 5660 5656 5652 5649 5645 5641 5638 5635 5632 5630 5627 5626 5623 5621 5620 5618 5617 5617 5615 5614 5613 5613 5613 5612 5612 5613 5613 5611 5611 5611 5612 5614 5615 5616 5615
5693 5689 5684 5679 5674 5669 5665 5661 5656 5653 5649 5645 5640 5637 5634 5630 5628 5625 5623 5621 5618 5617 5615 5614 5613 5612 5611 5610 5609 5608 5607 5607 5607 5608 5608 5607 5606 5606 5606 5607 5609 5610 5610
5690 5685 5681 5675 5671 5665 5661 5656 5652 5649 5644 5641 5637 5633 5629 5626 5624 5621 5618 5616 5614 5612 5610 5609 5608 5607 5606 5605 5604 5603 5602 5603 5603 5603 5603 5603 5602 5601 5601 5602 5603 5604 5604
5686 5681 5676 5671 5666 5661 5656 5652 5648 5644 5640 5636 5632 5629 5625 5622 5619 5616 5614 5612 5610 5607 5605 5604 5602 5601 5600 5599 5599 5598 5598 5598 5598 5598 5598 5598 5598 5597 5596 5596 5596 5597 5597
5680 5676 5671 5665 5661 5657 5652 5647 5643 5639 5635 5631 5628 5624 5621 5618 5615 5612 5610 5608 5605 5603 5600 5598 5596 5595 5595 5594 5594 5594 5593 5593 5593 5593 5593 5593 5592 5592 5592 5591 5590 5590 5590
5673 5669 5664 5660 5656 5651 5646 5641 5637 5633 5629 5626 5623 5620 5616 5613 5610 5607 5605 5603 5600 5598 5595 5592 5590 5590 5590 5589 5589 5589 5588 5588 5588 5587 5588 5588 5587 5587 5586 5586 5584 5584 5584
5665 5662 5658 5653 5649 5644 5639 5635 5631 5627 5624 5621 5618 5615 5612 5609 5606 5602 5600 5598 5595 5593 5589 5586 5585 5583 5582 5581 5581 5582 5583 5584 5583 5584 5584 5583 5583 5582 5580 5579 5579 5579 5579
5657 5654 5650 5646 5642 5637 5633 5629 5625 5622 5619 5617 5613 5611 5607 5604 5601 5597 5595 5593 5590 5587 5585 5582 5580 5577 5575 5571 5569 5574 5580 5581 5583 5582 5579 5578 5578 5577 5575 5574 5572 5572 5573
5648 5645 5642 5638 5634 5630 5626 5622 5619 5616 5614 5612 5608 5605 5602 5599 5596 5592 5589 5587 5584 5581 5579 5575 5572 5569 5567 5562 5559 5563 5574 5583 5587 5581 5576 5573 5572 5570 5569 5567 5566 5565 5565
5638 5635 5632 5629 5626 5622 5618 5615 5611 5609 5606 5605 5602 5599 5596 5593 5590 5586 5583 5580 5578 5575 5573 5569 5564 5560 5558 5555 5549 5547 5553 5569 5575 5577 5570 5565 5563 5561 5560 5558 5557 5556 5554
5627 5624 5623 5620 5617 5614 5610 5608 5606 5603 5602 5600 5596 5593 5590 5586 5583 5579 5576 5573 5570 5567 5565 5561 5556 5552 5547 5545 5542 5538 5536 5540 5540 5555 5561 5555 5552 5550 5548 5547 5546 5545 5543
5618 5616 5614 5612 5609 5605 5602 5599 5597 5595 5593 5591 5588 5586 5583 5580 5576 5571 5567 5564 5561 5558 5555 5552 5547 5543 5538 5534 5530 5528 5524 5519 5517 5518 5534 5540 5540 5540 5536 5535 5534 5533 5532
5611 5608 5606 5604 5600 5597 5594 5591 5588 5586 5584 5582 5580 5578 5575 5572 5568 5563 5558 5554 5551 5548 5544 5540 5536 5531 5526 5522 5518 5513 5509 5508 5507 5504 5509 5517 5520 5524 5523 5522 5520 5519 5518